• In Schweiz
  • Länderverzeichnis
  • Für 7 Tage
  • Wassertemperatur
  • Satellitenkarten
  • Wetterkarte
  • Widgets
  • user-avatar
    Anmelden

    Stündliche Wetter Tensyupino

    Heute, 23 Mai, Mittwoch

    Zeit Temperatur Niederschläge Wind Luftdruck Luftfeuchtigkeit
    00:00 +17°C° 0 mm 2 m/S 761 mmHg 74%
    01:00 +17°C° 0 mm 2 m/S 761 mmHg 74%
    02:00 +17°C° 0 mm 2 m/S 760 mmHg 75%
    03:00 +17°C° 0 mm 2 m/S 760 mmHg 76%
    04:00 +17°C° 0,2 mm 2 m/S 760 mmHg 77%
    05:00 +17°C° 0,2 mm 2 m/S 760 mmHg 78%
    06:00 +17°C° 0,2 mm 2 m/S 760 mmHg 79%
    07:00 +19°C° 0,1 mm 3 m/S 760 mmHg 76%
    08:00 +20°C° 0,1 mm 3 m/S 760 mmHg 72%
    09:00 +21°C° 0 mm 3 m/S 760 mmHg 69%
    10:00 +21°C° 0,1 mm 3 m/S 760 mmHg 69%
    11:00 +22°C° 0,1 mm 3 m/S 759 mmHg 69%
    12:00 +22°C° 0,1 mm 3 m/S 759 mmHg 69%
    13:00 +24°C° 0 mm 3 m/S 759 mmHg 68%
    14:00 +24°C° 0 mm 3 m/S 758 mmHg 67%
    15:00 +24°C° 0 mm 3 m/S 758 mmHg 66%
    16:00 +24°C° 0 mm 2 m/S 758 mmHg 69%
    17:00 +24°C° 0 mm 2 m/S 758 mmHg 71%
    18:00 +24°C° 0 mm 2 m/S 757 mmHg 74%
    19:00 +22°C° 0,2 mm 1 m/S 757 mmHg 79%
    20:00 +21°C° 0,2 mm 1 m/S 757 mmHg 85%
    21:00 +20°C° 0,2 mm 1 m/S 757 mmHg 90%
    22:00 +19°C° 0,2 mm 1 m/S 757 mmHg 91%
    23:00 +19°C° 0,2 mm 1 m/S 757 mmHg 92%

    Morgen, 24 Mai, Donnerstag

    Zeit Temperatur Niederschläge Wind Luftdruck Luftfeuchtigkeit
    00:00 +19°C° 0,2 mm 1 m/S 757 mmHg 93%
    01:00 +17°C° 0,6 mm 2 m/S 757 mmHg 94%
    02:00 +17°C° 0,6 mm 2 m/S 757 mmHg 94%
    03:00 +17°C° 0,6 mm 2 m/S 756 mmHg 95%
    04:00 +17°C° 0,7 mm 2 m/S 756 mmHg 94%
    05:00 +18°C° 0,7 mm 1 m/S 756 mmHg 94%
    06:00 +18°C° 0,7 mm 1 m/S 755 mmHg 93%
    07:00 +18°C° 0,6 mm 1 m/S 755 mmHg 92%
    08:00 +19°C° 0,6 mm 1 m/S 755 mmHg 91%
    09:00 +18°C° 0,6 mm 2 m/S 755 mmHg 91%
    10:00 +19°C° 0,6 mm 2 m/S 755 mmHg 89%
    11:00 +19°C° 0,6 mm 2 m/S 755 mmHg 88%
    12:00 +19°C° 0,6 mm 2 m/S 755 mmHg 86%
    13:00 +20°C° 0,3 mm 2 m/S 754 mmHg 85%
    14:00 +20°C° 0,3 mm 2 m/S 754 mmHg 84%
    15:00 +20°C° 0,3 mm 2 m/S 754 mmHg 82%
    16:00 +20°C° 0,2 mm 2 m/S 753 mmHg 83%
    17:00 +20°C° 0,2 mm 3 m/S 753 mmHg 83%
    18:00 +20°C° 0,2 mm 3 m/S 753 mmHg 84%
    19:00 +19°C° 0 mm 3 m/S 753 mmHg 87%
    20:00 +18°C° 0 mm 3 m/S 753 mmHg 90%
    21:00 +17°C° 0 mm 3 m/S 753 mmHg 93%
    22:00 +16°C° 0 mm 3 m/S 753 mmHg 92%
    23:00 +15°C° 0 mm 4 m/S 753 mmHg 91%

    übermorgen, 25 Mai, Freitag

    Zeit Temperatur Niederschläge Wind Luftdruck Luftfeuchtigkeit
    00:00 +15°C° 0 mm 4 m/S 753 mmHg 91%
    01:00 +14°C° 0 mm 4 m/S 753 mmHg 91%
    02:00 +14°C° 0 mm 5 m/S 753 mmHg 91%
    03:00 +13°C° 0 mm 5 m/S 754 mmHg 91%
    04:00 +13°C° 0 mm 6 m/S 754 mmHg 87%
    05:00 +11°C° 0 mm 6 m/S 755 mmHg 83%
    06:00 +11°C° 0 mm 6 m/S 755 mmHg 79%
    07:00 +12°C° 0 mm 7 m/S 756 mmHg 72%
    08:00 +14°C° 0 mm 7 m/S 756 mmHg 64%
    09:00 +14°C° 0 mm 7 m/S 757 mmHg 57%
    10:00 +15°C° 0 mm 7 m/S 757 mmHg 53%
    11:00 +16°C° 0 mm 7 m/S 758 mmHg 50%
    12:00 +16°C° 0 mm 7 m/S 758 mmHg 47%
    13:00 +16°C° 0 mm 7 m/S 758 mmHg 46%
    14:00 +16°C° 0 mm 7 m/S 758 mmHg 46%
    15:00 +16°C° 0 mm 7 m/S 759 mmHg 45%
    16:00 +15°C° 0 mm 7 m/S 759 mmHg 48%
    17:00 +15°C° 0 mm 6 m/S 759 mmHg 51%
    18:00 +14°C° 0 mm 5 m/S 760 mmHg 53%
    19:00 +13°C° 0 mm 5 m/S 760 mmHg 55%
    20:00 +11°C° 0 mm 4 m/S 761 mmHg 57%
    21:00 +10°C° 0 mm 3 m/S 762 mmHg 59%
    22:00 +9°C° 0 mm 3 m/S 762 mmHg 61%
    23:00 +8°C° 0 mm 3 m/S 762 mmHg 62%

    26 Mai, Samstag

    Zeit Temperatur Niederschläge Wind Luftdruck Luftfeuchtigkeit
    00:00 +8°C° 0 mm 3 m/S 763 mmHg 63%
    01:00 +7°C° 0 mm 3 m/S 763 mmHg 65%
    02:00 +5°C° 0 mm 3 m/S 764 mmHg 67%
    03:00 +5°C° 0 mm 2 m/S 764 mmHg 69%
    04:00 +5°C° 0 mm 3 m/S 765 mmHg 67%
    05:00 +7°C° 0 mm 3 m/S 765 mmHg 66%
    06:00 +7°C° 0 mm 3 m/S 765 mmHg 64%
    07:00 +9°C° 0 mm 3 m/S 766 mmHg 58%
    08:00 +11°C° 0 mm 4 m/S 766 mmHg 52%
    09:00 +13°C° 0 mm 4 m/S 766 mmHg 45%
    10:00 +14°C° 0 mm 4 m/S 766 mmHg 44%
    11:00 +15°C° 0 mm 4 m/S 766 mmHg 42%
    12:00 +17°C° 0 mm 4 m/S 766 mmHg 41%
    13:00 +17°C° 0 mm 4 m/S 766 mmHg 40%
    14:00 +18°C° 0 mm 4 m/S 766 mmHg 40%
    15:00 +18°C° 0 mm 3 m/S 765 mmHg 39%
    16:00 +18°C° 0 mm 3 m/S 765 mmHg 43%
    17:00 +18°C° 0 mm 2 m/S 765 mmHg 47%
    18:00 +19°C° 0 mm 1 m/S 765 mmHg 51%
    19:00 +16°C° 0 mm 1 m/S 765 mmHg 54%
    20:00 +14°C° 0 mm 1 m/S 765 mmHg 58%
    21:00 +12°C° 0 mm 1 m/S 765 mmHg 62%
    22:00 +11°C° 0 mm 1 m/S 765 mmHg 63%
    23:00 +11°C° 0 mm 1 m/S 765 mmHg 64%

    27 Mai, Sonntag

    Zeit Temperatur Niederschläge Wind Luftdruck Luftfeuchtigkeit
    00:00 +10°C° 0 mm 2 m/S 765 mmHg 66%
    01:00 +9°C° 0 mm 2 m/S 765 mmHg 69%
    02:00 +9°C° 0 mm 2 m/S 764 mmHg 72%
    03:00 +9°C° 0 mm 2 m/S 764 mmHg 75%
    04:00 +10°C° 0 mm 2 m/S 764 mmHg 76%
    05:00 +11°C° 0 mm 3 m/S 764 mmHg 78%
    06:00 +12°C° 0 mm 3 m/S 764 mmHg 79%
    07:00 +14°C° 0 mm 3 m/S 763 mmHg 74%
    08:00 +18°C° 0 mm 3 m/S 763 mmHg 69%
    09:00 +20°C° 0 mm 3 m/S 763 mmHg 63%
    10:00 +21°C° 0 mm 4 m/S 762 mmHg 58%
    11:00 +23°C° 0 mm 4 m/S 762 mmHg 53%
    12:00 +25°C° 0 mm 4 m/S 761 mmHg 48%
    13:00 +25°C° 0 mm 5 m/S 761 mmHg 48%
    14:00 +25°C° 0 mm 5 m/S 761 mmHg 48%
    15:00 +26°C° 0 mm 5 m/S 760 mmHg 48%
    16:00 +25°C° 0 mm 5 m/S 760 mmHg 52%
    17:00 +23°C° 0 mm 4 m/S 759 mmHg 56%
    18:00 +23°C° 0 mm 4 m/S 759 mmHg 61%
    19:00 +21°C° 0 mm 4 m/S 759 mmHg 64%
    20:00 +20°C° 0 mm 4 m/S 758 mmHg 68%
    21:00 +18°C° 0 mm 4 m/S 758 mmHg 71%
    22:00 +18°C° 0 mm 4 m/S 758 mmHg 71%
    23:00 +17°C° 0 mm 4 m/S 758 mmHg 72%

    28 Mai, Montag

    Zeit Temperatur Niederschläge Wind Luftdruck Luftfeuchtigkeit
    00:00 +17°C° 0 mm 4 m/S 758 mmHg 72%
    01:00 +15°C° 0 mm 4 m/S 757 mmHg 73%
    02:00 +14°C° 0 mm 4 m/S 757 mmHg 74%
    03:00 +14°C° 0 mm 4 m/S 757 mmHg 75%
    04:00 +14°C° 0 mm 4 m/S 757 mmHg 77%
    05:00 +14°C° 0 mm 4 m/S 757 mmHg 78%
    06:00 +15°C° 0 mm 4 m/S 757 mmHg 79%
    07:00 +17°C° 0 mm 4 m/S 757 mmHg 74%
    08:00 +18°C° 0 mm 4 m/S 757 mmHg 69%
    09:00 +19°C° 0 mm 5 m/S 756 mmHg 64%
    10:00 +20°C° 0 mm 5 m/S 756 mmHg 60%
    11:00 +20°C° 0 mm 5 m/S 756 mmHg 55%
    12:00 +21°C° 0 mm 6 m/S 756 mmHg 50%
    13:00 +20°C° 0 mm 6 m/S 756 mmHg 50%
    14:00 +20°C° 0 mm 5 m/S 756 mmHg 50%
    15:00 +20°C° 0 mm 5 m/S 755 mmHg 49%
    16:00 +19°C° 0 mm 4 m/S 755 mmHg 52%
    17:00 +19°C° 0 mm 4 m/S 755 mmHg 54%
    18:00 +19°C° 0 mm 3 m/S 755 mmHg 56%
    19:00 +17°C° 0 mm 3 m/S 754 mmHg 61%
    20:00 +14°C° 0 mm 3 m/S 754 mmHg 66%
    21:00 +13°C° 0 mm 2 m/S 754 mmHg 71%
    22:00 +12°C° 0,4 mm 3 m/S 754 mmHg 78%
    23:00 +11°C° 0,4 mm 4 m/S 754 mmHg 85%
    Mehr zeigen